7 * 24
多渠道服务支持
STARLINK-38234(NORAD 100552)是美国SpaceX公司星链(Starlink)低轨互联网星座的组成卫星,隶属于该公司全球宽带通信卫星部署计划。其运行于近地轨道(LEO),标准轨道高度约550公里,轨道周期约95分钟,采用Ku/Ka频段通信,搭载星间激光链路,可减少对地面站依赖,为全球尤其是偏远、应急场景提供低延迟(15-50ms)高速宽带接入服务,支持动态波束成形服务地面终端,是星链组网实现全球互联网覆盖的在轨节点之一。
美国
(US)
| 数据来源 | 国际轨道数据 |
| 星历时间: | 2026-09-22T08:06:58+0800 19小时前 查看轨道信息 |
| 半长轴: | 6715.289km |
| 偏心率: | 0.0003539 |
| 轨道倾角: | 69.999° |
| 近地点辐角 | 280.444° |
| 升交点赤经 | 130.989° |
| 平近点角 | 79.636° |
| 近地点: | 334.775km |
| 远地点: | 339.529km |
| 周期: | 91.276分钟 |
| 每日圈数: | 15.77632 |